| time (UTC) | temp C | wind direction | speed KPH | gust KPH | rain 1hr cm | rain 24hr cm | rain mn cm | humidity % | barometer mb |
| 20260902230009 | 21 | 349 | 1.6 | 6.4 | 0.00 | 0.00 | 0.00 | 80 | 1019.9 |
| 20260902224554 | 20 | 319 | 0.0 | 6.4 | 0.00 | 0.00 | 0.00 | 81 | 1020.0 |
| 20260902223005 | 21 | 314 | 0.0 | 4.8 | 0.00 | 0.00 | 0.00 | 79 | 1019.9 |
| 20260902221544 | 21 | 343 | 4.8 | 8.0 | 0.00 | 0.00 | 0.00 | 78 | 1019.9 |
| 20260902220022 | 21 | 308 | 1.6 | 8.0 | 0.00 | 0.00 | 0.00 | 79 | 1019.9 |
| 20260902214540 | 21 | 324 | 0.0 | 8.0 | 0.00 | 0.00 | 0.00 | 80 | 1019.9 |
| 20260902213041 | 21 | 281 | 0.0 | 6.4 | 0.00 | 0.00 | 0.00 | 81 | 1019.7 |
| 20260902211554 | 20 | 296 | 0.0 | 0.0 | 0.00 | 0.00 | 0.00 | 82 | 1019.5 |
| 20260902210044 | 20 | 288 | 0.0 | 3.2 | 0.00 | 0.00 | 0.00 | 82 | 1019.6 |
| 20260902204615 | 20 | 272 | 0.0 | 3.2 | 0.00 | 0.00 | 0.00 | 82 | 1019.5 |
| 20260902203049 | 20 | 289 | 0.0 | 3.2 | 0.00 | 0.00 | 0.00 | 82 | 1019.2 |
| 20260902201550 | 21 | 279 | 0.0 | 4.8 | 0.00 | 0.00 | 0.00 | 82 | 1019.2 |
| 20260902200037 | 21 | 275 | 0.0 | 0.0 | 0.00 | 0.00 | 0.00 | 81 | 1019.0 |
| 20260902194556 | 21 | 275 | 0.0 | 3.2 | 0.00 | 0.00 | 0.00 | 81 | 1019.0 |
| 20260902193001 | 21 | 275 | 0.0 | 3.2 | 0.00 | 0.00 | 0.00 | 80 | 1018.9 |
| 20260902191537 | 21 | 277 | 0.0 | 3.2 | 0.00 | 0.00 | 0.00 | 80 | 1018.7 |
| 20260902190029 | 21 | 276 | 0.0 | 3.2 | 0.00 | 0.00 | 0.00 | 80 | 1018.6 |
| 20260902184552 | 22 | 280 | 0.0 | 3.2 | 0.00 | 0.00 | 0.00 | 79 | 1018.3 |
| 20260902183004 | 23 | 323 | 0.0 | 3.2 | 0.00 | 0.00 | 0.00 | 78 | 1018.1 |
| 20260902181554 | 23 | 265 | 0.0 | 3.2 | 0.00 | 0.00 | 0.00 | 76 | 1018.0 |
| 20260902180105 | 25 | 111 | 0.0 | 0.0 | 0.00 | 0.00 | 0.00 | 73 | 1017.9 |
| 20260902174526 | 26 | 111 | 0.0 | 0.0 | 0.00 | 0.00 | 0.00 | 69 | 1017.8 |
| 20260902173054 | 27 | 111 | 0.0 | 3.2 | 0.00 | 0.00 | 0.00 | 66 | 1017.6 |
| 20260902171515 | 27 | 111 | 0.0 | 1.6 | 0.00 | 0.00 | 0.00 | 62 | 1017.7 |
| 20260902170025 | 28 | 119 | 0.0 | 3.2 | 0.00 | 0.00 | 0.00 | 58 | 1017.8 |
| 20260902164556 | 28 | 148 | 0.0 | 1.6 | 0.00 | 0.00 | 0.00 | 56 | 1017.7 |
| 20260902163102 | 28 | 118 | 0.0 | 4.8 | 0.00 | 0.00 | 0.00 | 54 | 1017.7 |
| 20260902161531 | 29 | 114 | 1.6 | 4.8 | 0.00 | 0.00 | 0.00 | 53 | 1017.7 |
| 20260902160033 | 29 | 126 | 1.6 | 6.4 | 0.00 | 0.00 | 0.00 | 54 | 1017.8 |
| 20260902154540 | 29 | 173 | 0.0 | 6.4 | 0.00 | 0.00 | 0.00 | 51 | 1017.8 |
| 20260902153003 | 30 | 235 | 0.0 | 6.4 | 0.00 | 0.00 | 0.00 | 48 | 1018.1 |
| 20260902151557 | 30 | 157 | 0.0 | 3.2 | 0.00 | 0.00 | 0.00 | 49 | 1018.2 |
| 20260902150032 | 29 | 163 | 0.0 | 4.8 | 0.00 | 0.00 | 0.00 | 52 | 1018.3 |
| 20260902144609 | 29 | 260 | 0.0 | 4.8 | 0.00 | 0.00 | 0.00 | 53 | 1018.5 |
| 20260902143033 | 28 | 251 | 0.0 | 4.8 | 0.00 | 0.00 | 0.00 | 55 | 1018.5 |
| 20260902141525 | 28 | 286 | 1.6 | 4.8 | 0.00 | 0.00 | 0.00 | 55 | 1018.6 |
| 20260902140021 | 29 | 278 | 3.2 | 6.4 | 0.00 | 0.00 | 0.00 | 51 | 1018.7 |
| 20260902134541 | 29 | 225 | 0.0 | 8.0 | 0.00 | 0.00 | 0.00 | 53 | 1018.9 |
| 20260902133014 | 28 | 246 | 0.0 | 6.4 | 0.00 | 0.00 | 0.00 | 59 | 1018.8 |
| 20260902131612 | 28 | 221 | 1.6 | 8.0 | 0.00 | 0.00 | 0.00 | 57 | 1019.0 |
| 20260902130100 | 28 | 224 | 6.4 | 12.9 | 0.00 | 0.00 | 0.00 | 57 | 1019.0 |
| 20260902124520 | 29 | 286 | 1.6 | 6.4 | 0.00 | 0.00 | 0.00 | 59 | 1019.4 |
| 20260902123003 | 28 | 242 | 6.4 | 14.5 | 0.00 | 0.00 | 0.00 | 58 | 1019.7 |
| 20260902121603 | 28 | 237 | 3.2 | 11.3 | 0.00 | 0.00 | 0.00 | 60 | 1019.8 |
| 20260902120003 | 28 | 217 | 0.0 | 9.7 | 0.00 | 0.00 | 0.00 | 58 | 1019.9 |
| 20260902114513 | 27 | 204 | 4.8 | 9.7 | 0.00 | 0.00 | 0.00 | 59 | 1020.1 |
| 20260902113049 | 27 | 114 | 0.0 | 6.4 | 0.00 | 0.00 | 0.00 | 61 | 1020.2 |
| 20260902111551 | 27 | 129 | 0.0 | 6.4 | 0.00 | 0.00 | 0.00 | 61 | 1020.5 |
| 20260902110103 | 26 | 206 | 3.2 | 8.0 | 0.00 | 0.00 | 0.00 | 64 | 1020.6 |
| 20260902104539 | 27 | 350 | 0.0 | 9.7 | 0.00 | 0.00 | 0.00 | 65 | 1020.8 |
| 20260902103109 | 26 | 269 | 3.2 | 11.3 | 0.00 | 0.00 | 0.00 | 67 | 1020.9 |
| 20260902101604 | 26 | 264 | 1.6 | 6.4 | 0.00 | 0.00 | 0.00 | 68 | 1020.8 |
| 20260902100054 | 26 | 180 | 1.6 | 4.8 | 0.00 | 0.00 | 0.00 | 64 | 1021.0 |
| 20260902094554 | 26 | 32 | 0.0 | 6.4 | 0.00 | 0.00 | 0.00 | 63 | 1021.1 |
| 20260902093052 | 26 | 253 | 1.6 | 6.4 | 0.00 | 0.00 | 0.00 | 68 | 1021.2 |
| 20260902091515 | 25 | 240 | 1.6 | 11.3 | 0.00 | 0.00 | 0.00 | 70 | 1021.4 |
| 20260902090021 | 25 | 271 | 3.2 | 9.7 | 0.00 | 0.00 | 0.00 | 69 | 1021.4 |
| 20260902084602 | 25 | 274 | 4.8 | 11.3 | 0.00 | 0.00 | 0.00 | 67 | 1021.3 |
| 20260902083013 | 25 | 265 | 0.0 | 6.4 | 0.00 | 0.00 | 0.00 | 69 | 1021.2 |
| 20260902081550 | 24 | 261 | 1.6 | 4.8 | 0.00 | 0.00 | 0.00 | 70 | 1021.2 |
| 20260902080006 | 23 | 267 | 0.0 | 4.8 | 0.00 | 0.00 | 0.00 | 71 | 1021.1 |
| 20260902074523 | 23 | 280 | 1.6 | 11.3 | 0.00 | 0.00 | 0.00 | 74 | 1020.9 |
| 20260902073008 | 22 | 350 | 0.0 | 3.2 | 0.00 | 0.00 | 0.00 | 76 | 1021.1 |
| 20260902071538 | 22 | 359 | 0.0 | 3.2 | 0.00 | 0.00 | 0.00 | 77 | 1020.8 |
| 20260902070025 | 22 | 241 | 1.6 | 4.8 | 0.00 | 0.00 | 0.00 | 79 | 1020.9 |
| 20260902064550 | 22 | 350 | 1.6 | 11.3 | 0.00 | 0.00 | 0.00 | 79 | 1020.8 |
| 20260902063104 | 21 | 330 | 1.6 | 6.4 | 0.00 | 0.00 | 0.00 | 80 | 1020.6 |
| 20260902061548 | 21 | 333 | 1.6 | 4.8 | 0.00 | 0.00 | 0.00 | 81 | 1020.7 |
| 20260902060034 | 21 | 338 | 0.0 | 6.4 | 0.00 | 0.00 | 0.00 | 81 | 1020.6 |
| 20260902054530 | 21 | 300 | 0.0 | 6.4 | 0.00 | 0.00 | 0.00 | 81 | 1020.5 |
| 20260902053011 | 20 | 339 | 3.2 | 6.4 | 0.00 | 0.00 | 0.00 | 82 | 1020.3 |
| 20260902051527 | 20 | 297 | 0.0 | 1.6 | 0.00 | 0.00 | 0.00 | 83 | 1020.4 |
| 20260902050019 | 20 | 264 | 0.0 | 4.8 | 0.00 | 0.00 | 0.00 | 82 | 1020.1 |
| 20260902044532 | 20 | 273 | 0.0 | 3.2 | 0.00 | 0.00 | 0.00 | 82 | 1020.4 |
| 20260902043007 | 20 | 324 | 0.0 | 3.2 | 0.00 | 0.00 | 0.00 | 83 | 1020.3 |
| 20260902041534 | 19 | 270 | 0.0 | 6.4 | 0.00 | 0.00 | 0.00 | 83 | 1020.1 |
| 20260902040035 | 19 | 309 | 0.0 | 3.2 | 0.00 | 0.00 | 0.00 | 83 | 1020.1 |
| 20260902034526 | 19 | 337 | 0.0 | 3.2 | 0.00 | 0.00 | 0.00 | 83 | 1020.1 |
| 20260902033051 | 20 | 278 | 0.0 | 1.6 | 0.00 | 0.00 | 0.00 | 83 | 1020.1 |
| 20260902031524 | 20 | 280 | 0.0 | 3.2 | 0.00 | 0.00 | 0.00 | 83 | 1020.1 |
| 20260902030054 | 20 | 337 | 0.0 | 4.8 | 0.00 | 0.00 | 0.00 | 83 | 1020.3 |
| 20260902024538 | 20 | 276 | 1.6 | 4.8 | 0.00 | 0.00 | 0.00 | 83 | 1020.1 |
| 20260902023055 | 20 | 281 | 0.0 | 8.0 | 0.00 | 0.00 | 0.00 | 82 | 1020.0 |
| 20260902021527 | 20 | 279 | 3.2 | 4.8 | 0.00 | 0.00 | 0.00 | 82 | 1020.3 |
| 20260902020059 | 20 | 334 | 1.6 | 4.8 | 0.00 | 0.00 | 0.00 | 82 | 1020.2 |
| 20260902014520 | 20 | 344 | 0.0 | 6.4 | 0.00 | 0.00 | 0.00 | 82 | 1020.1 |
| 20260902013022 | 20 | 289 | 0.0 | 6.4 | 0.00 | 0.00 | 0.00 | 83 | 1020.1 |
| 20260902011533 | 20 | 262 | 0.0 | 4.8 | 0.00 | 0.00 | 0.00 | 83 | 1020.1 |
| 20260902010043 | 20 | 291 | 1.6 | 6.4 | 0.00 | 0.00 | 0.00 | 83 | 1020.2 |
| 20260902004600 | 20 | 291 | 0.0 | 3.2 | 0.00 | 0.00 | 0.00 | 83 | 1020.0 |
| 20260902003057 | 20 | 23 | 0.0 | 4.8 | 0.00 | 0.00 | 0.00 | 83 | 1020.2 |
| 20260902001532 | 20 | 13 | 0.0 | 0.0 | 0.00 | 0.00 | 0.00 | 82 | 1020.0 |
| 20260902000119 | 21 | 22 | 0.0 | 1.6 | 0.00 | 0.00 | 0.00 | 82 | 1020.1 |
| 20260901234539 | 21 | 348 | 0.0 | 4.8 | 0.00 | 0.00 | 0.00 | 82 | 1020.1 |
| 20260901233108 | 21 | 64 | 0.0 | 4.8 | 0.00 | 0.00 | 0.00 | 83 | 1020.1 |
| 20260901231510 | 21 | 312 | 0.0 | 3.2 | 0.00 | 0.00 | 0.00 | 82 | 1020.0 |